Weather History for KCBK - March, 2013

Change the Weather History Date:

Friday, March 1, 2013

  Actual Average (KGLD) Record (KGLD)
Temperature  
Mean Temperature 32 °F 36 °F  
Max Temperature 39 °F 50 °F 79 °F (2008)
Min Temperature 24 °F 23 °F -11 °F (1922)
Degree Days  
Heating Degree Days 34 29  
Month to date heating degree days 29  
Since 1 July heating degree days 4446  
Cooling Degree Days 0 0  
Month to date cooling degree days 0  
Year to date cooling degree days 0  
Moisture  
Dew Point 30 °F    
Average Humidity 91    
Maximum Humidity 100    
Minimum Humidity 75    
Precipitation  
Precipitation 0.00 in 0.02 in 1.39 in (1940)
Month to date precipitation 0.02  
Year to date precipitation 0.89  
Snow  
Snow 0.00 in 0.20 in - ()
Month to date snowfall 0.2  
Since 1 July snowfall 24.2  
Snow Depth -    
Sea Level Pressure  
Sea Level Pressure 30.25 in    
Wind  
Wind Speed 9 mph (NNW)    
Max Wind Speed 15 mph    
Max Gust Speed 21 mph    
Visibility 10 miles    
Events Fog    
T = Trace of Precipitation, MM = Missing Value Source: NWS Daily Summary

Daily Weather History Graph

Daily Weather History Graph

Search for Another Location

Airport or City:

Trip Planner

Search our weather history database for the weather conditions in past years. The results will help you decide how hot, cold, wet, or windy it might be!

Date:

Astronomy

Mar. 01, 2013 Rise Set
Actual Time 7:16 AM CST 6:36 PM CST
Civil Twilight 6:49 AM CST 7:03 PM CST
Nautical Twilight 6:18 AM CST 7:34 PM CST
Astronomical Twilight 5:47 AM CST 8:06 PM CST
Moon 11:10 PM CST (3/1) 9:06 AM CST (3/1)
Length of Visible Light 12h 14m
Length of Day
11h 20m
Waning Gibbous, 83% of the Moon is Illuminated
Mar 1
Waning Gibbous
Mar 4
Last Quarter
Mar 11
New
Mar 19
First Quarter
Mar 27
Full

Hourly Weather History & Observations

Time (CST) Temp. Windchill Dew Point Humidity Pressure Visibility Wind Dir Wind Speed Gust Speed Precip Events Conditions
12:15 AM 30.2 °F 22.6 °F 28.4 °F 93% 30.17 in 10.0 mi WNW 8.1 mph - N/A   Mostly Cloudy
12:35 AM 32.0 °F 24.2 °F 28.4 °F 87% 30.17 in 10.0 mi WNW 9.2 mph - N/A   Mostly Cloudy
12:55 AM 30.2 °F 21.9 °F 28.4 °F 93% 30.17 in 10.0 mi WNW 9.2 mph - N/A   Scattered Clouds
1:15 AM 30.2 °F 21.3 °F 28.4 °F 93% 30.18 in 10.0 mi WNW 10.4 mph - N/A   Mostly Cloudy
1:35 AM 30.2 °F 21.9 °F 28.4 °F 93% 30.18 in 10.0 mi WNW 9.2 mph - N/A   Scattered Clouds
1:55 AM 30.2 °F 21.9 °F 28.4 °F 93% 30.18 in 10.0 mi WNW 9.2 mph - N/A   Scattered Clouds
2:15 AM 30.2 °F 20.8 °F 28.4 °F 93% 30.20 in 10.0 mi NW 11.5 mph - N/A   Mostly Cloudy
2:55 AM 30.2 °F 21.3 °F 30.2 °F 100% 30.19 in 10.0 mi NW 10.4 mph - N/A   Overcast
3:15 AM 32.0 °F 23.0 °F 30.2 °F 93% 30.19 in 10.0 mi NNW 11.5 mph - N/A   Overcast
3:35 AM 32.0 °F 23.6 °F 28.4 °F 87% 30.19 in 10.0 mi North 10.4 mph - N/A   Overcast
3:55 AM 30.2 °F 23.4 °F 28.4 °F 93% 30.19 in 10.0 mi North 6.9 mph - N/A   Overcast
4:15 AM 30.2 °F 23.4 °F 28.4 °F 93% 30.20 in 10.0 mi North 6.9 mph - N/A   Overcast
4:35 AM 28.4 °F 20.4 °F 28.4 °F 100% 30.20 in 10.0 mi North 8.1 mph - N/A   Overcast
5:15 AM 26.6 °F 17.5 °F 26.6 °F 100% 30.21 in 10.0 mi NW 9.2 mph - N/A   Scattered Clouds
5:35 AM 28.4 °F 19.7 °F 28.4 °F 100% 30.21 in 10.0 mi WNW 9.2 mph - N/A   Mostly Cloudy
5:55 AM 28.4 °F 18.5 °F 28.4 °F 100% 30.21 in 10.0 mi WNW 11.5 mph - N/A   Overcast
6:15 AM 26.6 °F 15.7 °F 26.6 °F 100% 30.22 in 7.0 mi West 12.7 mph - N/A   Scattered Clouds
7:15 AM 24.8 °F 13.4 °F 24.8 °F 100% 30.24 in 1.0 mi NW 12.7 mph - N/A   Mostly Cloudy
7:35 AM 26.6 °F 16.8 °F 26.6 °F 100% 30.24 in 0.2 mi NW 10.4 mph - N/A Fog Light Freezing Fog
7:55 AM 26.6 °F 17.5 °F 26.6 °F 100% 30.25 in 7.0 mi NW 9.2 mph - N/A   Mostly Cloudy
8:15 AM 26.6 °F 17.5 °F 26.6 °F 100% 30.25 in 7.0 mi WNW 9.2 mph - N/A   Scattered Clouds
8:35 AM 26.6 °F 17.5 °F 26.6 °F 100% 30.25 in 10.0 mi WNW 9.2 mph - N/A   Scattered Clouds
8:55 AM 28.4 °F 20.4 °F 28.4 °F 100% 30.26 in 10.0 mi WNW 8.1 mph - N/A   Clear
9:15 AM 30.2 °F 21.9 °F 30.2 °F 100% 30.27 in 10.0 mi WNW 9.2 mph - N/A   Clear
9:35 AM 32.0 °F 23.0 °F 30.2 °F 93% 30.27 in 10.0 mi WNW 11.5 mph - N/A   Clear
9:55 AM 32.0 °F 22.5 °F 32.0 °F 100% 30.27 in 10.0 mi WNW 12.7 mph - N/A   Clear
10:15 AM 33.8 °F 24.8 °F 32.0 °F 93% 30.27 in 10.0 mi WNW 12.7 mph - N/A   Clear
10:35 AM 33.8 °F 24.3 °F 32.0 °F 93% 30.27 in 10.0 mi NW 13.8 mph - N/A   Clear
10:55 AM 35.6 °F 26.6 °F 32.0 °F 87% 30.27 in 10.0 mi NW 13.8 mph - N/A   Clear
11:15 AM 35.6 °F 27.5 °F 32.0 °F 87% 30.27 in 10.0 mi NW 11.5 mph - N/A   Clear
11:35 AM 37.4 °F 28.9 °F 32.0 °F 81% 30.27 in 10.0 mi NNW 13.8 mph - N/A   Clear
11:55 AM 37.4 °F 28.9 °F 32.0 °F 81% 30.27 in 10.0 mi NNW 13.8 mph 19.6 mph N/A   Clear
12:15 PM 37.4 °F 28.9 °F 32.0 °F 81% 30.27 in 10.0 mi NNW 13.8 mph 20.7 mph N/A   Clear
12:35 PM 37.4 °F 28.5 °F 32.0 °F 81% 30.27 in 10.0 mi North 15.0 mph - N/A   Clear
12:55 PM 37.4 °F 29.8 °F 32.0 °F 81% 30.27 in 10.0 mi North 11.5 mph - N/A   Scattered Clouds
1:15 PM 37.4 °F 28.9 °F 32.0 °F 81% 30.27 in 10.0 mi North 13.8 mph - N/A   Scattered Clouds
1:35 PM 37.4 °F 28.5 °F 32.0 °F 81% 30.26 in 10.0 mi North 15.0 mph - N/A   Scattered Clouds
2:15 PM 37.4 °F 29.3 °F 32.0 °F 81% 30.25 in 10.0 mi North 12.7 mph - N/A   Mostly Cloudy
2:35 PM 37.4 °F 30.3 °F 32.0 °F 81% 30.25 in 10.0 mi NNE 10.4 mph - N/A   Overcast
2:55 PM 39.2 °F 33.0 °F 32.0 °F 75% 30.25 in 10.0 mi North 9.2 mph - N/A   Overcast
3:15 PM 39.2 °F 31.6 °F 32.0 °F 75% 30.25 in 10.0 mi North 12.7 mph - N/A   Overcast
3:35 PM 39.2 °F 31.2 °F 32.0 °F 75% 30.25 in 10.0 mi North 13.8 mph - N/A   Overcast
3:55 PM 37.4 °F 29.8 °F 32.0 °F 81% 30.25 in 10.0 mi NNE 11.5 mph - N/A   Mostly Cloudy
4:15 PM 39.2 °F 30.8 °F 32.0 °F 75% 30.25 in 10.0 mi North 15.0 mph - N/A   Scattered Clouds
4:35 PM 37.4 °F 29.3 °F 32.0 °F 81% 30.25 in 10.0 mi North 12.7 mph - N/A   Clear
4:55 PM 37.4 °F 30.3 °F 32.0 °F 81% 30.25 in 10.0 mi North 10.4 mph - N/A   Clear
5:15 PM 37.4 °F 30.3 °F 32.0 °F 81% 30.26 in 10.0 mi North 10.4 mph - N/A   Clear
5:35 PM 37.4 °F 30.3 °F 32.0 °F 81% 30.26 in 10.0 mi North 10.4 mph - N/A   Clear
5:55 PM 35.6 °F 29.9 °F 32.0 °F 87% 30.26 in 10.0 mi NNE 6.9 mph - N/A   Clear
6:15 PM 33.8 °F 28.6 °F 32.0 °F 93% 30.27 in 10.0 mi North 5.8 mph - N/A   Clear
6:35 PM 33.8 °F 29.6 °F 30.2 °F 87% 30.27 in 10.0 mi North 4.6 mph - N/A   Clear
6:55 PM 33.8 °F 30.8 °F 30.2 °F 87% 30.28 in 10.0 mi North 3.5 mph - N/A   Clear
7:15 PM 32.0 °F 28.7 °F 30.2 °F 93% 30.29 in 10.0 mi NW 3.5 mph - N/A   Mostly Cloudy
7:35 PM 32.0 °F 27.5 °F 30.2 °F 93% 30.29 in 10.0 mi North 4.6 mph - N/A   Overcast
7:55 PM 32.0 °F 28.7 °F 30.2 °F 93% 30.29 in 10.0 mi North 3.5 mph - N/A   Overcast
8:15 PM 32.0 °F 28.7 °F 30.2 °F 93% 30.28 in 10.0 mi NE 3.5 mph - N/A   Mostly Cloudy
8:35 PM 32.0 °F - 30.2 °F 93% 30.28 in 10.0 mi Calm Calm - N/A   Clear
8:55 PM 32.0 °F - 30.2 °F 93% 30.29 in 10.0 mi Calm Calm - N/A   Clear
9:55 PM 30.2 °F - 30.2 °F 100% 30.30 in 10.0 mi Calm Calm - N/A   Clear
10:15 PM 28.4 °F - 28.4 °F 100% 30.30 in 10.0 mi Calm Calm - N/A   Clear
10:35 PM 28.4 °F - 28.4 °F 100% 30.30 in 10.0 mi Calm Calm - N/A   Clear
10:55 PM 28.4 °F - 28.4 °F 100% 30.30 in 10.0 mi Calm Calm - N/A   Clear
11:15 PM 26.6 °F - 26.6 °F 100% 30.30 in 10.0 mi Calm Calm - N/A   Clear
11:35 PM 26.6 °F 19.1 °F 26.6 °F 100% 30.30 in 10.0 mi SW 6.9 mph - N/A   Clear
11:55 PM 26.6 °F 21.2 °F 26.6 °F 100% 30.29 in 10.0 mi SW 4.6 mph - N/A   Clear